This is the latest recevied weather packets stored in our database for station/object W8CEN. If no packets are shown the sender has not sent any weather packets the latest 1 day(s).
| Time | Temp. | Humidity | Pressure | Rain* | Wind** | Luminosity | Snow |
|---|---|---|---|---|---|---|---|
| 1778036189 | 8.89° C | 98% | 988.2 hPa | 1.27 mm | - | 0 W/m² | - |
| 1778035885 | 8.89° C | 98% | 988.1 hPa | 0 mm | - | 0 W/m² | - |
| 1778035583 | 8.89° C | 98% | 988 hPa | 1.78 mm | - | 0 W/m² | - |
| 1778035279 | 8.89° C | 98% | 988.2 hPa | 1.78 mm | - | 0 W/m² | - |
| 1778034975 | 8.89° C | 97% | 987.9 hPa | 0 mm | - | 0 W/m² | - |
| 1778034673 | 8.89° C | 97% | 987.9 hPa | 1.27 mm | - | 0 W/m² | - |
| 1778034370 | 8.89° C | 97% | 987.8 hPa | 3.05 mm | - | 0 W/m² | - |
| 1778034067 | 8.89° C | 97% | 988 hPa | 3.05 mm | - | 0 W/m² | - |
| 1778033765 | 8.89° C | 97% | 988 hPa | 1.27 mm | - | 0 W/m² | - |
| 1778033462 | 8.89° C | 97% | 988.1 hPa | 3.05 mm | - | 0 W/m² | - |
| 1778033159 | 8.89° C | 97% | 987.8 hPa | 3.05 mm | - | 0 W/m² | - |
| 1778032554 | 8.89° C | 97% | 987.7 hPa | 4.83 mm | - | 0 W/m² | - |
| 1778031643 | 8.89° C | 97% | 987.5 hPa | 3.05 mm | - | 0 W/m² | - |
| 1778031342 | 9.44° C | 97% | 987.6 hPa | 1.78 mm | - | 0 W/m² | - |
| 1778031038 | 9.44° C | 97% | 987.7 hPa | 1.27 mm | - | 0 W/m² | - |
| 1778030734 | 8.89° C | 97% | 987.6 hPa | 1.27 mm | - | 0 W/m² | - |
| 1778029525 | 9.44° C | 97% | 987.1 hPa | 1.27 mm | - | 0 W/m² | - |
| 1778029221 | 9.44° C | 96% | 987.2 hPa | 1.27 mm | - | 0 W/m² | - |
| 1778028918 | 9.44° C | 96% | 987.1 hPa | 0 mm | - | 0 W/m² | - |
| 1778028312 | 9.44° C | 96% | 987.3 hPa | 3.05 mm | - | 0 W/m² | - |
| 1778028008 | 9.44° C | 96% | 987.5 hPa | 1.27 mm | - | 0 W/m² | - |
| 1778027400 | 9.44° C | 96% | 987.6 hPa | 3.05 mm | - | 1 W/m² | - |
| 1778027096 | 9.44° C | 95% | 987.3 hPa | 3.05 mm | - | 1 W/m² | - |
| 1778026792 | 9.44° C | 95% | 987.3 hPa | 3.05 mm | - | 2 W/m² | - |
| 1778026489 | 9.44° C | 95% | 987.3 hPa | 3.05 mm | - | 3 W/m² | - |
* Rain latest hour (hover to see other rain measurements)
** Current wind speed in m/s (hover to see current wind gust speed)